Location: Albany
(35.0000°S, 118.0000°E)
Time: 15:16:46
(UTC-05:00)

JAS-1B - Visible Passes

Search period start: 07 December 2016 00:00
Search period end: 17 December 2016 00:00
Orbit: 911 x 1744 km, 99.0° (Epoch: 07 December)

Date Brightness Start Highest point End Pass type
(mag) Time Alt. Az. Time Alt. Az. Time Alt. Az.
08 Dec 10.3 14:00:58 10° SE 14:05:36 14° E 14:09:57 10° ENE visible
09 Dec 10.0 14:18:27 10° SE 14:25:06 21° E 14:31:11 10° NE visible
10 Dec 9.8 14:36:35 10° SE 14:44:32 28° E 14:51:36 10° NNE visible
11 Dec 9.4 14:55:07 10° SSE 15:03:53 38° E 15:11:33 10° NNE visible
12 Dec 8.9 15:13:49 10° SSE 15:23:09 51° E 15:31:10 10° N visible
13 Dec 10.5 13:49:01 10° ESE 13:49:59 10° E 13:50:56 10° E visible
14 Dec 10.1 14:04:28 10° SE 14:09:32 16° E 14:14:14 10° ENE visible
15 Dec 9.9 14:22:12 10° SE 14:29:02 22° E 14:35:07 10° NE visible
16 Dec 9.6 14:40:29 10° SSE 14:48:26 31° E 14:55:20 10° NNE visible
